Flag for Canada Weather past 2 weeks in Hamilton, Ontario, Canada

Now
77 °F

Scattered clouds.


Feels Like: 79 °F
Forecast: 69 / 80 °F
Wind: 5 mph from Southwest

Location: Hamilton Airport

Current Time: Sep 2, 2015 at 8:23:53 PM

Latest Report: Sep 2, 2015 at 7:00 PM


Visibility: 15 mi

Pressure: 29.93 "Hg

Humidity: 69%

Dew point: 66 °F

Location of HamiltonLocation

Historic Weather in Hamilton — Graph

°F

Hamilton temperature yesterday

Maximum temperature yesterday: 84 °F (at 4:00 PM)
Minimum temperature yesterday: 59 °F (at 5:00 AM)
Average temperature yesterday: 71 °F

Past Weeks' High & Low Weather Summary

 TemperatureHumidityPressure
High88 °F (Sep 2, 2:00 PM)100% (Aug 19, 3:00 AM)30.23 "Hg (Aug 19, 3:00 AM)
Low48 °F (Aug 28, 7:00 AM)47% (Aug 22, 5:00 PM)29.71 "Hg (Aug 20, 6:00 AM)
Average67 °F79%30.02 "Hg
* Reported Aug 18 7:00 PM — Sep 2 7:00 PM, Hamilton, Weather by CustomWeather, © 2015

Note: Actual official high and low records may vary slightly from our data, if they occured in-between our weather recording intervals... More about our weather records

Advertising

Hamilton weather history for previous 24 hours

 ConditionsComfort  
Time TempWeatherWind HumidityBarometerVisibility
7:00 PM
Wed, Sep 2
77 °FScattered clouds.5 mph69%29.93 "Hg15 mi
6:00 PM81 °FThunderstorms. Broken clouds.8 mph66%29.94 "Hg15 mi
5:00 PM86 °FScattered showers. Partly sunny.12 mph59%29.94 "Hg6 mi
4:00 PM86 °FBroken clouds.8 mph62%29.96 "Hg7 mi
3:00 PM88 °FBroken clouds.9 mph55%29.98 "Hg7 mi
2:00 PM88 °FBroken clouds.10 mph49%29.99 "Hg15 mi
1:00 PM86 °FBroken clouds.13 mph59%30.00 "Hg15 mi
12:00 PM84 °FPassing clouds.5 mph66%30.02 "Hg15 mi
11:00 AM81 °FSunny.6 mph74%30.04 "Hg12 mi
10:00 AM75 °FSunny.8 mph89%30.04 "Hg8 mi
9:00 AM72 °FFog.8 mph94%30.05 "Hg5 mi
8:00 AM68 °FFog.5 mph94%30.05 "Hg1 mi
7:00 AM63 °FFog.5 mph100%30.04 "Hg0 mi
6:00 AM64 °FFog.3 mph100%30.03 "Hg1 mi
5:00 AM63 °FFog.7 mph100%30.03 "Hg1 mi
4:00 AM64 °FFog.6 mph94%30.04 "Hg1 mi
3:00 AM64 °FClear.5 mph100%30.04 "Hg12 mi
2:00 AM64 °FClear.5 mph100%30.06 "Hg15 mi
1:00 AM68 °FClear.5 mph94%30.06 "Hg15 mi
12:00 AM68 °FClear.6 mph94%30.06 "Hg15 mi
11:00 PM
Tue, Sep 1
66 °FClear.6 mph94%30.06 "Hg12 mi
10:00 PM70 °FClear.6 mph78%30.06 "Hg15 mi
9:00 PM72 °FClear.5 mph78%30.05 "Hg12 mi
8:00 PM75 °FFog.5 mph89%30.04 "Hg5 mi
Weather by CustomWeather, © 2015

See weather overviewHow to use our weather pages